Toccoa Rg Letourneau Field, T, GA

12:41 PM EDT on May 27, 2017 (GMT -0400)
Toccoa-Letourneau

Weather History for KTOC - March, 2014

Change the Weather History Date:

Sunday, March 23, 2014

  Actual Average Record
Temperature  
Mean Temperature 60 °F -  
Max Temperature 69 °F 66 °F 72 °F (2016)
Min Temperature 49 °F 39 °F 40 °F (2016)
Degree Days  
Heating Degree Days 6    
Growing Degree Days 10 (Base 50)    
Moisture  
Dew Point 43 °F    
Average Humidity 57    
Maximum Humidity 82    
Minimum Humidity 32    
Precipitation  
Precipitation 0.00 in - - ()
Sea Level Pressure  
Sea Level Pressure 29.99 in    
Wind  
Wind Speed 3 mph (NNW)    
Max Wind Speed 14 mph    
Max Gust Speed 23 mph    
Visibility 10 miles    
Events Rain    
Averages and records for this station are not official NWS values.
T = Trace of Precipitation, MM = Missing Value Source: NWS Daily Summary

Daily Weather History Graph

Daily Weather History Graph

Search for Another Location

Airport or City:

Trip Planner

Search our weather history database for the weather conditions in past years. The results will help you decide how hot, cold, wet, or windy it might be!

Date:

Astronomy

Mar. 23, 2014 Rise Set
Actual Time 7:32 AM EDT 7:47 PM EDT
Civil Twilight 7:07 AM EDT 8:12 PM EDT
Nautical Twilight 6:38 AM EDT 8:41 PM EDT
Astronomical Twilight 6:08 AM EDT 9:11 PM EDT
Moon 1:51 AM EDT (3/23) 12:24 PM EDT (3/23)
Length of Visible Light 13h 04m
Length of Day
12h 14m
Waning Gibbous, 55% of the Moon is Illuminated
Mar 23
Waning Gibbous
Mar 23
Last Quarter
Mar 30
New
Apr 7
First Quarter
Apr 15
Full

Hourly Weather History & Observations

Time (EDT) Temp. Dew Point Humidity Pressure Visibility Wind Dir Wind Speed Gust Speed Precip Events Conditions
12:15 AM 64.2 °F 43.3 °F 47% 30.01 in 10.0 mi West 3.5 mph - N/A   Clear
12:35 AM 63.7 °F 43.7 °F 48% 30.01 in 10.0 mi Calm Calm - N/A   Clear
12:55 AM 59.4 °F 44.2 °F 57% 30.00 in 10.0 mi Calm Calm - N/A   Clear
1:15 AM 58.3 °F 45.0 °F 61% 30.00 in 10.0 mi NNW 3.5 mph - N/A   Clear
1:35 AM 61.0 °F 44.2 °F 54% 30.00 in 10.0 mi NW 3.5 mph - N/A   Clear
1:55 AM 60.4 °F 44.1 °F 55% 30.00 in 10.0 mi Calm Calm - N/A   Clear
2:15 AM 58.1 °F 44.6 °F 61% 29.99 in 10.0 mi Calm Calm - N/A   Clear
2:35 AM 55.9 °F 45.1 °F 67% 29.99 in 10.0 mi Calm Calm - N/A   Clear
2:55 AM 54.9 °F 45.3 °F 70% 29.97 in 10.0 mi Calm Calm - N/A   Clear
3:15 AM 56.8 °F 44.8 °F 64% 29.97 in 10.0 mi Calm Calm - N/A   Clear
3:35 AM 56.1 °F 45.3 °F 67% 29.96 in 10.0 mi Calm Calm - N/A   Clear
3:55 AM 55.0 °F 45.5 °F 70% 29.95 in 10.0 mi Calm Calm - N/A   Clear
4:15 AM 55.6 °F 45.3 °F 68% 29.94 in 10.0 mi Calm Calm - N/A   Mostly Cloudy
4:35 AM 54.7 °F 45.5 °F 71% 29.94 in 10.0 mi Calm Calm - N/A   Mostly Cloudy
4:55 AM 53.1 °F 45.7 °F 76% 29.94 in 10.0 mi Calm Calm - N/A   Scattered Clouds
5:15 AM 53.6 °F 45.7 °F 75% 29.93 in 10.0 mi Calm Calm - N/A   Clear
5:35 AM 54.0 °F 46.0 °F 75% 29.94 in 10.0 mi Calm Calm - N/A   Clear
5:55 AM 52.0 °F 45.9 °F 80% 29.94 in 10.0 mi Calm Calm - N/A   Clear
6:15 AM 51.1 °F 45.9 °F 82% 29.94 in 10.0 mi Calm Calm - N/A   Clear
6:35 AM 52.0 °F 45.9 °F 80% 29.95 in 10.0 mi Calm Calm - N/A   Clear
6:55 AM 52.9 °F 45.9 °F 77% 29.94 in 10.0 mi SW 3.5 mph - N/A   Clear
7:15 AM 52.2 °F 46.0 °F 80% 29.94 in 10.0 mi SW 4.6 mph - N/A   Mostly Cloudy
7:35 AM 52.9 °F 45.9 °F 77% 29.95 in 10.0 mi North 3.5 mph - N/A   Mostly Cloudy
7:55 AM 52.5 °F 46.2 °F 79% 29.95 in 10.0 mi Calm Calm - N/A   Scattered Clouds
8:15 AM 52.9 °F 46.8 °F 80% 29.96 in 10.0 mi NNW 3.5 mph - N/A   Clear
8:35 AM 54.5 °F 47.7 °F 78% 29.96 in 10.0 mi West 4.6 mph - N/A   Clear
8:55 AM 59.2 °F 45.9 °F 61% 29.97 in 10.0 mi West 4.6 mph - N/A   Mostly Cloudy
9:15 AM 56.7 °F 47.5 °F 71% 29.98 in 10.0 mi NNW 3.5 mph - N/A   Overcast
9:35 AM 57.9 °F 48.0 °F 70% 29.99 in 10.0 mi Calm Calm - N/A   Light Drizzle
9:55 AM 59.9 °F 47.7 °F 64% 29.99 in 10.0 mi Calm Calm - N/A   Mostly Cloudy
10:15 AM 61.0 °F 47.8 °F 62% 29.99 in 10.0 mi Calm Calm - N/A   Overcast
10:35 AM 61.7 °F 47.7 °F 60% 29.99 in 10.0 mi Calm Calm - N/A Rain Light Rain
10:55 AM 61.2 °F 48.4 °F 63% 29.99 in 10.0 mi Calm Calm - N/A   Light Drizzle
11:15 AM 61.2 °F 48.7 °F 64% 29.99 in 10.0 mi NNE 3.5 mph - N/A   Overcast
11:35 AM 60.8 °F 49.1 °F 65% 30.00 in 10.0 mi Calm Calm - N/A   Overcast
11:55 AM 60.6 °F 49.3 °F 66% 30.00 in 10.0 mi Calm Calm - N/A Rain Light Rain
12:15 PM 61.0 °F 49.3 °F 65% 29.99 in 10.0 mi Calm Calm - N/A   Mostly Cloudy
12:35 PM 61.5 °F 49.6 °F 65% 29.98 in 10.0 mi Calm Calm - N/A   Scattered Clouds
12:55 PM 63.9 °F 50.0 °F 61% 29.99 in 10.0 mi SSE 4.6 mph - N/A   Scattered Clouds
1:15 PM 64.6 °F 49.8 °F 59% 29.98 in 10.0 mi SSE 4.6 mph - N/A   Scattered Clouds
1:35 PM 65.5 °F 49.5 °F 56% 29.98 in 10.0 mi Calm Calm - N/A   Scattered Clouds
1:55 PM 66.2 °F 49.6 °F 55% 29.97 in 10.0 mi Calm Calm - N/A   Mostly Cloudy
2:15 PM 66.7 °F 49.6 °F 54% 29.96 in 10.0 mi Calm Calm - N/A   Scattered Clouds
2:35 PM 68.0 °F 49.6 °F 52% 29.94 in 10.0 mi Calm Calm - N/A   Mostly Cloudy
2:55 PM 66.7 °F 49.3 °F 53% 29.94 in 10.0 mi Calm Calm - N/A   Overcast
3:15 PM 67.5 °F 47.8 °F 49% 29.94 in 10.0 mi North 9.2 mph - N/A   Overcast
3:35 PM 67.1 °F 44.2 °F 44% 29.94 in 10.0 mi NNW 9.2 mph 16.1 mph N/A   Overcast
3:55 PM 68.9 °F 43.7 °F 40% 29.94 in 10.0 mi NNW 9.2 mph 18.4 mph N/A   Scattered Clouds
4:15 PM 69.4 °F 44.1 °F 40% 29.94 in 10.0 mi North 12.7 mph 20.7 mph N/A   Clear
4:35 PM 69.3 °F 43.7 °F 40% 29.94 in 10.0 mi NNW 8.1 mph 17.3 mph N/A   Scattered Clouds
4:55 PM 69.3 °F 43.3 °F 39% 29.95 in 10.0 mi NNW 13.8 mph 21.9 mph N/A   Mostly Cloudy
5:15 PM 66.9 °F 45.0 °F 45% 29.96 in 10.0 mi NNW 9.2 mph 23.0 mph N/A   Mostly Cloudy
5:35 PM 66.2 °F 44.8 °F 46% 29.96 in 10.0 mi NW 10.4 mph 20.7 mph N/A   Scattered Clouds
5:55 PM 66.0 °F 43.7 °F 44% 29.97 in 10.0 mi NW 9.2 mph - N/A   Scattered Clouds
6:15 PM 65.3 °F 41.9 °F 42% 29.98 in 10.0 mi NNW 8.1 mph - N/A   Scattered Clouds
6:35 PM 64.4 °F 37.9 °F 38% 29.99 in 10.0 mi NNW 8.1 mph - N/A   Scattered Clouds
6:55 PM 63.1 °F 33.4 °F 33% 30.01 in 10.0 mi WNW 6.9 mph - N/A   Clear
7:15 PM 62.1 °F 31.8 °F 32% 30.02 in 10.0 mi North 8.1 mph - N/A   Clear
7:35 PM 60.3 °F 32.0 °F 34% 30.02 in 10.0 mi NW 5.8 mph - N/A   Clear
7:55 PM 58.8 °F 31.3 °F 35% 30.04 in 10.0 mi NNW 5.8 mph - N/A   Clear
8:15 PM 57.2 °F 32.0 °F 38% 30.04 in 10.0 mi NW 3.5 mph - N/A   Clear
8:35 PM 56.3 °F 32.4 °F 40% 30.05 in 10.0 mi NW 5.8 mph - N/A   Clear
8:55 PM 54.1 °F 33.3 °F 45% 30.06 in 10.0 mi Calm Calm - N/A   Clear
9:15 PM 54.3 °F 33.3 °F 45% 30.08 in 10.0 mi North 4.6 mph - N/A   Clear
9:35 PM 53.6 °F 32.9 °F 45% 30.09 in 10.0 mi North 6.9 mph - N/A   Clear
9:55 PM 53.2 °F 32.0 °F 44% 30.10 in 10.0 mi North 8.1 mph - N/A   Clear
10:15 PM 52.9 °F 31.5 °F 44% 30.11 in 10.0 mi North 5.8 mph - N/A   Clear
10:35 PM 51.6 °F 31.8 °F 47% 30.11 in 10.0 mi North 3.5 mph - N/A   Clear
10:55 PM 51.3 °F 31.6 °F 47% 30.12 in 10.0 mi NNW 3.5 mph - N/A   Clear
11:15 PM 50.4 °F 32.0 °F 49% 30.13 in 10.0 mi North 5.8 mph - N/A   Clear
11:35 PM 50.0 °F 31.5 °F 49% 30.13 in 10.0 mi North 6.9 mph - N/A   Clear
11:55 PM 49.1 °F 31.1 °F 50% 30.14 in 10.0 mi North 3.5 mph - N/A   Clear